Regional Weather Roundup
Issued by NWS

Home | Current Version | Previous Version | Text Only | Print | Product List | Glossary Off
Versions: 1 2 3 4 5 6 7 8 9 10 11 12 13 14 15 16 17 18 19 20 21 22 23 24 25 26 27 28 29 30 31 32 33 34 35 36 37 38 39 40 41 42 43 44 45 46 47 48 49 50

000
ASUS43 KMKX 110010
RWRWI

WISCONSIN REGIONAL WEATHER ROUNDUP
NATIONAL WEATHER SERVICE MILWAUKEE/SULLIVAN WI
600 PM CST SUN DEC 10 2017

NOTE: "FAIR" INDICATES FEW OR NO CLOUDS BELOW 12,000 FEET WITH NO
SIGNIFICANT WEATHER AND/OR OBSTRUCTIONS TO VISIBILITY.

WIZ001-002-006>008-014>016-023>028-110100-
NORTHWEST WISCONSIN

CITY           SKY/WX    TMP DP  RH WIND       PRES   REMARKS
SUPERIOR ARPT  CLOUDY    18  11  76 CALM      30.06S
6HR MIN TEMP:  17; 6HR MAX TEMP:  26;

ASHLAND        CLOUDY    11   8  88 S3        30.06R
6HR MIN TEMP:  10; 6HR MAX TEMP:  21;

HAYWARD        CLOUDY    14  10  84 CALM      30.03R
6HR MIN TEMP:  13; 6HR MAX TEMP:  23;

SIREN          CLOUDY    19  15  82 CALM      30.04S
6HR MIN TEMP:  19; 6HR MAX TEMP:  26;

CUMBERLAND     CLOUDY    18  14  86 CALM      30.02S
RICE LAKE      CLOUDY    17  15  90 CALM      30.05R
6HR MIN TEMP:  16; 6HR MAX TEMP:  26;

CHETEK         CLOUDY    17  15  90 CALM      30.04S
6HR MIN TEMP:  17; 6HR MAX TEMP:  26;

LADYSMITH      PTCLDY    19  13  78 CALM      30.04R
6HR MIN TEMP:  19; 6HR MAX TEMP:  24;

EAU CLAIRE     CLOUDY    22  17  81 CALM      30.05R
6HR MIN TEMP:  21; 6HR MAX TEMP:  27;

MENOMONIE      MOCLDY    26  19  74 CALM      30.05R
6HR MIN TEMP:  26; 6HR MAX TEMP:  29;

NEW RICHMOND   PTCLDY    23  18  81 CALM      30.04S
6HR MIN TEMP:  23; 6HR MAX TEMP:  30;

OSCEOLA        CLOUDY    20  16  84 CALM      30.07F
6HR MIN TEMP:  20; 6HR MAX TEMP:  31;

$$

WIZ003>005-009-010-017-018-110100-
NORTH CENTRAL WISCONSIN

CITY           SKY/WX    TMP DP  RH WIND       PRES   REMARKS
MANITOWISH WTR FLURRIES  16  14  92 NW6       29.97S WCI   7
6HR MIN TEMP:  16; 6HR MAX TEMP:  19;

ARBOR VITAE    LGT SNOW  19  16  86 NW3       29.97R
6HR MIN TEMP:  19; 6HR MAX TEMP:  22;

WOODRUFF       LGT SNOW  19  16  86 NW3       29.97R
6HR MIN TEMP:  19; 6HR MAX TEMP:  22;

RHINELANDER    LGT SNOW  18  15  88 CALM      29.98R FOG
6HR MIN TEMP:  18; 6HR MAX TEMP:  21; 6HR PCP: TRACE;

EAGLE RIVER    FLURRIES  17  11  77 NW5       29.96R WCI  10
6HR MIN TEMP:  17; 6HR MAX TEMP:  19;

LAND O LAKES   FLURRIES  16  13  86 N3        29.98R
6HR MIN TEMP:  16; 6HR MAX TEMP:  19;

PHILLIPS       FLURRIES  18  13  82 NW5       30.00R WCI  11
6HR MIN TEMP:  18; 6HR MAX TEMP:  20;

TOMAHAWK       FLURRIES  19  13  79 NW6       30.00R WCI  10
6HR MIN TEMP:  19; 6HR MAX TEMP:  22;

MEDFORD        CLOUDY    20  13  73 NW9       29.99R WCI  10
6HR MIN TEMP:  20; 6HR MAX TEMP:  22;

MERRILL        CLOUDY    21  14  73 N12       30.00R WCI   9
$$

WIZ029-030-035-036-043>047-110100-
CENTRAL WISCONSIN

CITY           SKY/WX    TMP DP  RH WIND       PRES   REMARKS
WAUSAU         CLOUDY    22  13  68 N12       30.00R WCI  10
6HR MIN TEMP:  22; 6HR MAX TEMP:  23;

MOSINEE        CLOUDY    21  18  86 NW8       30.01R WCI  12
MARSHFIELD     CLOUDY    22  15  75 NW12      30.01R WCI  10
6HR MIN TEMP:  22; 6HR MAX TEMP:  24;

STEVENS POINT  CLOUDY    22  15  74 NW7       30.02R WCI  14
6HR MIN TEMP:  22; 6HR MAX TEMP:  23;

WAUPACA        CLOUDY    28  18  68 W6        30.02R WCI  21
6HR MIN TEMP:  27; 6HR MAX TEMP:  28;

WAUTOMA        CLOUDY    25  18  74 NW8       30.04R WCI  16
6HR MIN TEMP:  25; 6HR MAX TEMP:  27;

WISC RAPIDS    CLOUDY    24  16  71 NW10      30.04R WCI  14
6HR MIN TEMP:  24; 6HR MAX TEMP:  25;

CAMP DOUGLAS   CLOUDY    26  17  70 NW9       30.05R WCI  17
6HR MIN TEMP:  26; 6HR MAX TEMP:  28;

$$

WIZ011>013-019>022-031-037>040-048>050-110100-
NORTHEAST WISCONSIN

CITY           SKY/WX    TMP DP  RH WIND       PRES   REMARKS
ANTIGO         CLOUDY    20  15  81 NW8       29.98R WCI  10
6HR MIN TEMP:  20; 6HR MAX TEMP:  21;

SHAWANO        CLOUDY    26  17  66 N5        30.01R WCI  21
6HR MIN TEMP:  26; 6HR MAX TEMP:  28;

OCONTO         CLOUDY    24  14  66 N8        30.02R WCI  14
6HR MIN TEMP:  23; 6HR MAX TEMP:  26;

STURGEON BAY   CLOUDY    24  17  74 N12       30.00R WCI  13
6HR MIN TEMP:  23; 6HR MAX TEMP:  27; 6HR PCP: TRACE;

GREEN BAY      CLOUDY    26  17  68 N8        30.02R WCI  18
6HR MIN TEMP:  24; 6HR MAX TEMP:  28;

MANITOWOC      CLOUDY    24  18  77 W8        30.01R WCI  15
6HR MIN TEMP:  23; 6HR MAX TEMP:  27;

APPLETON       CLOUDY    25  16  68 NW7       29.99R WCI  17
CLINTONVILLE   CLOUDY    27  18  69 NW6       30.01R WCI  20
OSHKOSH        CLOUDY    26  19  74 W6        30.01R WCI  19
6HR MIN TEMP:  24; 6HR MAX TEMP:  26;

$$

WIZ032>034-041-042-053>061-110100-
SOUTHWEST WISCONSIN

CITY           SKY/WX    TMP DP  RH WIND       PRES   REMARKS
LA CROSSE      CLOUDY    29  20  69 N6        30.08R WCI  23
6HR MIN TEMP:  28; 6HR MAX TEMP:  30;

SPARTA         CLOUDY    26  20  77 CALM      30.07R
6HR MIN TEMP:  26; 6HR MAX TEMP:  28;

VIROQUA        CLOUDY    25  21  85 NW7       30.04R WCI  17
6HR MIN TEMP:  25; 6HR MAX TEMP:  27;

BOSCOBEL       CLOUDY    28  20  71 NW3       30.08R
6HR MIN TEMP:  28; 6HR MAX TEMP:  31;

PRAIRIE DU CHI PTCLDY    26  19  73 W5        30.08R WCI  21
6HR MIN TEMP:  26; 6HR MAX TEMP:  32;

PLATTEVILLE    CLOUDY    28  23  82 NW5       30.05S WCI  23
6HR MIN TEMP:  28; 6HR MAX TEMP:  31;

$$

WIZ056-057-062-063-064-067-068-110100-
SOUTH CENTRAL WISCONSIN

CITY           SKY/WX    TMP DP  RH WIND       PRES   REMARKS
REEDSBURG      CLOUDY    26  18  71 NW8       30.05R WCI  18
6HR MIN TEMP:  26; 6HR MAX TEMP:  29;

BARABOO/DELLS  CLOUDY    27  18  69 NW3       30.04R
6HR MIN TEMP:  27; 6HR MAX TEMP:  29;

LONE ROCK      CLOUDY    28  20  71 NW3       30.07R
6HR MIN TEMP:  28; 6HR MAX TEMP:  31;

MINERAL POINT  CLOUDY    28  23  80 NW5       30.03S WCI  23
MADISON        CLOUDY    27  18  69 NW9G17    30.04R WCI  18
6HR MIN TEMP:  27; 6HR MAX TEMP:  29;

MIDDLETON      CLOUDY    29  20  69 NW7       30.05R WCI  22
6HR MIN TEMP:  29; 6HR MAX TEMP:  32;

WATERTOWN      CLOUDY    27  21  80 NW5       30.03R WCI  21
6HR MIN TEMP:  26; 6HR MAX TEMP:  28;

MONROE         CLOUDY    28  21  74 NW7       30.04R WCI  21
JANESVILLE     CLOUDY    30  21  69 CALM      30.02R
$$

WIZ051-052-058>065-066-070>072-110100-
SOUTHEAST WISCONSIN

CITY           SKY/WX    TMP DP  RH WIND       PRES   REMARKS
MILWAUKEE      CLOUDY    28  19  69 NW10      30.03R WCI  19
6HR MIN TEMP:  28; 6HR MAX TEMP:  29;

WAUKESHA       CLOUDY    25  18  74 NW8       30.03R WCI  16
MILWAUKEE/TIMM CLOUDY    27  18  69 NW10      30.04R WCI  17
RACINE         CLOUDY    27  18  69 NW10G23   30.05R WCI  17
6HR MIN TEMP:  27; 6HR MAX TEMP:  28;

BURLINGTON     CLOUDY    34  31  88 NW5       30.03R WCI  30
6HR MIN TEMP:  33; 6HR MAX TEMP:  37;

KENOSHA        CLOUDY    27  19  72 NW8       30.03R WCI  19
6HR MIN TEMP:  27; 6HR MAX TEMP:  30;

FOND DU LAC    CLOUDY    26  18  71 NW6       30.02R WCI  19
6HR MIN TEMP:  25; 6HR MAX TEMP:  27;

SHEBOYGAN      CLOUDY    25  19  78 NW7       30.01R WCI  17
6HR MIN TEMP:  24; 6HR MAX TEMP:  25;

WEST BEND      CLOUDY    27  19  74 NW8       30.02R WCI  18
JUNEAU         CLOUDY    25  19  77 NW5       30.04R WCI  19
6HR MIN TEMP:  24; 6HR MAX TEMP:  26;

$$

LSZ147-162-110100-
LAKE SUPERIOR

STATION/POSITION TIME  TEMP    WIND        PRES    WAVE
                       AIR SEA DIR/SP/G            HT/PER
                 (UTC) (F)     (DEG/KT/KT) (MB)    (FT/S)
DEVILS ISLAND    0000   22     320/  7/ 10 1018.6S
SAXON HARBOR     2330   20                 1017.3S
$$

LMZ867-665-643>646-110100-
LAKE MICHIGAN

STATION/POSITION TIME  TEMP    WIND        PRES    WAVE
                       AIR SEA DIR/SP/G            HT/PER
                 (UTC) (F)     (DEG/KT/KT) (MB)    (FT/S)
NORTHPORT PIER   2340


USA.gov is the U.S. government's official web portal to all federal, state and local government web resources and services.